[[{"header":{"parameterUnit":"m.s-1","parameterCategory":1,"la1":30.2991,"la2":30.254,"lo1":-89.0895,"lo2":-89.0444,"dy":0.0017,"dx":0.0017,"nx":28,"ny":28,"refTime":"2025-04-05T03:00:00:Z","depth":0,"parameterNumber":2,"parameterNumberName":"U-component_of_WINDS"},"data":[0,0,0,0,0,0,0,0,0,0,0,0,0,0,0,0,0,0,0,0,0,0,0,0,0,0,0,0,0,0,0,0,0,0,0,0,0,0,0,0,0,0,0,0,0,0,0,0,0,0,0,0,0,0,0,0,0,0,-5.5003,-5.5004,0,-5.5126,-5.5127,-5.5129,-5.5125,-5.5123,-5.5122,-5.512,-5.5245,-5.525,-5.5255,0,0,0,0,0,0,0,0,0,0,0,0,0,-5.4764,-5.4769,-5.5002,-5.5004,-5.5006,-5.5125,-5.5127,-5.5129,-5.5125,-5.5123,-5.5121,-5.5119,-5.5244,-5.525,-5.5255,0,0,0,0,0,0,0,0,0,0,0,0,0,-5.4876,-5.477,-5.5002,-5.5018,-5.5021,-5.5125,-5.5127,-5.5129,-5.5126,-5.5123,-5.5121,-5.5118,-5.5242,-5.5249,-5.5256,-5.5352,0,0,-5.5279,-5.5282,0,0,0,0,0,0,0,0,-5.4869,-5.4884,-5.5014,-5.5017,-5.5021,-5.5107,-5.5089,-5.5204,-5.5126,-5.5086,-5.512,-5.5117,-5.5202,-5.5212,-5.5241,-5.5358,-5.5364,-5.5279,-5.5284,-5.5287,-5.5289,0,0,0,0,0,0,0,-5.4862,-5.4879,-5.5051,-5.5016,-5.502,-5.5019,-5.5032,-5.5111,-5.5156,-5.5089,-5.5089,-5.5104,-5.5203,-5.5234,-5.5244,-5.5365,-5.5279,-5.5286,-5.529,-5.5293,-5.5568,-5.5571,0,0,0,0,0,0,-5.4851,-5.4873,-5.5047,-5.5055,-5.4937,-5.5026,-5.504,-5.5082,-5.5156,-5.5164,-5.5106,-5.5103,-5.5222,-5.5235,-5.5248,-5.5364,-5.5287,-5.5294,-5.5298,-5.5565,-5.5569,-5.5572,0,0,0,0,0,0,-5.4845,-5.4866,-5.5042,-5.4964,-5.4986,-5.5033,-5.508,-5.5086,-5.5117,-5.5168,-5.5176,-5.5129,-5.5221,-5.5238,-5.5326,-5.5369,-5.5297,-5.5304,-5.5562,-5.5566,-5.557,-5.5598,0,0,0,0,0,0,-5.4839,-5.4864,-5.4901,-5.4965,-5.499,-5.5119,-5.5082,-5.509,-5.5129,-5.5127,-5.5192,-5.52,-5.522,-5.5315,-5.5334,-5.5377,-5.531,-5.5558,-5.5564,-5.5569,-5.5594,-5.5603,-5.5611,0,0,0,0,0,-5.483,-5.4904,-5.4903,-5.4924,-5.5037,-5.5121,-5.5136,-5.5157,-5.5133,-5.517,-5.5204,-5.5198,-5.5362,-5.5325,-5.5345,-5.5392,-5.5555,-5.5562,-5.5568,-5.559,-5.5601,-5.5611,0,0,0,0,0,0,-5.4843,-5.4912,-5.4912,-5.5009,-5.5059,-5.512,-5.5168,-5.5169,-5.5226,-5.5222,-5.5246,-5.5261,-5.5349,-5.538,-5.5337,-5.5489,-5.5456,-5.5466,-5.5465,-5.5476,-5.5484,-5.5474,-5.5316,0,0,0,0,0,-5.4858,-5.492,-5.4977,-5.5057,-5.5082,-5.5121,-5.5158,-5.517,-5.5223,-5.5244,-5.5284,-5.5336,-5.5399,-5.544,-5.5501,-5.5599,-5.5613,-5.5642,-5.565,-5.5657,-5.5665,-5.5719,-5.5733,-5.5593,-5.5593,-5.5593,0,0,-5.4887,-5.4933,-5.497,-5.5061,-5.5101,-5.5165,-5.5139,-5.5207,-5.5254,-5.5255,-5.534,-5.5372,-5.5431,-5.5525,-5.5569,-5.5554,-5.5708,-5.5665,-5.5671,-5.5675,-5.5727,-5.5741,-5.5752,-5.5598,-5.5597,-5.5596,0,0,-5.4973,-5.5015,-5.5085,-5.5127,-5.5189,-5.5214,-5.5231,-5.5293,-5.5314,-5.5401,-5.5403,-5.546,-5.5568,-5.561,-5.5645,-5.575,-5.5747,-5.577,-5.5813,-5.5866,-5.5877,-5.5886,-5.5922,-5.5935,-5.5778,-5.5778,-5.5778,0,-5.5002,-5.5098,-5.5121,-5.519,-5.5229,-5.5234,-5.5306,-5.5345,-5.5424,-5.5451,-5.5433,-5.5569,-5.561,-5.5713,-5.5739,-5.5768,-5.5788,-5.576,-5.5873,-5.5883,-5.5893,-5.5927,-5.5941,-5.578,-5.578,-5.578,-5.578,0,-5.5129,-5.5196,-5.5246,-5.5322,-5.5367,-5.5437,-5.5471,-5.5515,-5.5524,-5.5552,-5.564,-5.569,-5.576,-5.5786,-5.5796,-5.5892,-5.588,-5.5868,-5.5835,-5.5908,-5.594,-5.5954,-5.5783,-5.5783,-5.5782,-5.5782,0,0,-5.5224,-5.5314,-5.5331,-5.5366,-5.5436,-5.5487,-5.5558,-5.5628,-5.5664,-5.5719,-5.5778,-5.5871,-5.586,-5.5901,-5.5916,-5.5962,-5.604,-5.5944,-5.5946,-5.5958,-5.6147,-5.6154,-5.6169,-5.604,-5.6043,-5.6045,-5.6142,0,-5.5316,-5.544,-5.5464,-5.5573,-5.5635,-5.5641,-5.5703,-5.5753,-5.5781,-5.5838,-5.5869,-5.5934,-5.5915,-5.594,-5.5986,-5.6021,-5.6078,-5.6014,-5.6094,-5.6097,-5.6076,-5.6187,-5.6194,-5.6283,-5.6155,-5.6157,-5.6159,0,-5.5438,-5.5497,-5.5611,-5.5673,-5.57,-5.5755,-5.5821,-5.5875,-5.5932,-5.595,-5.5996,-5.6006,-5.608,-5.6045,-5.6147,-5.6103,-5.6138,-5.616,-5.6164,-5.617,-5.613,-5.6193,-5.6312,-5.6325,-5.6179,-5.6178,-5.6176,0,-5.5493,-5.5601,-5.5683,-5.5713,-5.5788,-5.5826,-5.5859,-5.5914,-5.5954,-5.6012,-5.6039,-5.6105,-5.6141,-5.6192,-5.622,-5.6193,-5.6319,-5.6287,-5.6335,-5.6334,-5.6358,-5.6356,-5.6482,-5.6385,-5.6385,-5.6385,-5.6384,0,-5.5592,-5.5661,-5.5709,-5.5759,-5.5837,-5.5865,-5.5942,-5.5975,-5.6023,-5.608,-5.6091,-5.6144,-5.6179,-5.6237,-5.626,-5.634,-5.6357,-5.6372,-5.6377,-5.637,-5.6368,-5.6391,-5.6384,-5.6388,-5.6388,-5.6387,-5.6386,0,-5.5665,-5.57,-5.579,-5.5854,-5.5872,-5.5927,-5.5982,-5.6031,-5.606,-5.6132,-5.6151,-5.6197,-5.6266,-5.63,-5.6386,-5.6401,-5.6491,-5.6493,-5.6472,-5.6473,-5.6518,-5.6512,-5.6661,-5.6681,-5.6573,-5.6574,-5.6575,0,-5.5724,-5.5778,-5.5848,-5.5887,-5.5921,-5.5984,-5.6025,-5.6056,-5.6099,-5.6168,-5.6209,-5.6279,-5.6336,-5.6447,-5.6488,-5.6554,-5.6556,-5.6604,-5.6566,-5.6557,-5.6554,-5.655,-5.6555,-5.6609,-5.6611,-5.6611,-5.6612,0,-5.5825,-5.584,-5.5899,-5.5966,-5.6015,-5.6069,-5.6121,-5.6153,-5.6192,-5.624,-5.6311,-5.6355,-5.6444,-5.6513,-5.6582,-5.6616,-5.662,-5.6624,-5.6638,-5.663,-5.6615,-5.6622,-5.6488,-5.662,-5.6619,-5.6619,-5.6618,-5.6618,-5.5891,-5.5939,-5.5996,-5.6062,-5.6106,-5.6155,-5.6204,-5.624,-5.63,-5.6374,-5.6389,-5.6464,-5.6521,-5.6614,-5.6651,-5.671,-5.67,-5.672,-5.6725,-5.6729,-5.6731,-5.6608,-5.6724,-5.6723,-5.6723,-5.6723,-5.6723,0,-5.5991,-5.6028,-5.6089,-5.6163,-5.6215,-5.6216,-5.6275,-5.6318,-5.6384,-5.6437,-5.6493,-5.6575,-5.6643,-5.669,-5.6759,-5.6797,-5.6801,-5.6814,-5.681,-5.6818,-5.6737,-5.6717,-5.681,-5.681,-5.681,-5.681,-5.681,-5.6809,-5.6048,-5.6129,-5.6151,-5.6254,-5.6291,-5.6364,-5.6398,-5.6443,-5.6485,-5.6576,-5.6632,-5.6663,-5.6714,-5.6786,-5.6848,-5.6861,-5.6884,-5.6897,-5.6909,-5.6833,-5.6823,-5.6814,-5.6796,-5.6903,-5.6903,-5.6984,-5.6985,-5.6986]},{"header":{"parameterUnit":"m.s-1","parameterCategory":1,"la1":30.2991,"la2":30.254,"lo1":-89.0895,"lo2":-89.0444,"dy":0.0017,"dx":0.0017,"nx":28,"ny":28,"refTime":"2025-04-05T03:00:00:Z","depth":0,"parameterNumber":3,"parameterNumberName":"V-component_of_WINDS"},"data":[0,0,0,0,0,0,0,0,0,0,0,0,0,0,0,0,0,0,0,0,0,0,0,0,0,0,0,0,0,0,0,0,0,0,0,0,0,0,0,0,0,0,0,0,0,0,0,0,0,0,0,0,0,0,0,0,0,0,5.798,5.7981,0,5.8123,5.8124,5.8126,5.8133,5.8132,5.813,5.8128,5.8272,5.8277,5.8283,0,0,0,0,0,0,0,0,0,0,0,0,0,5.7713,5.7717,5.798,5.7982,5.7983,5.8123,5.8124,5.8126,5.8134,5.8132,5.813,5.8128,5.827,5.8277,5.8283,0,0,0,0,0,0,0,0,0,0,0,0,0,5.7839,5.7719,5.7979,5.8004,5.8007,5.8122,5.8125,5.8127,5.8134,5.8131,5.8129,5.8127,5.8268,5.8276,5.8284,5.8384,0,0,5.8309,5.8312,0,0,0,0,0,0,0,0,5.7832,5.7849,5.7998,5.8002,5.8007,5.8108,5.8083,5.8213,5.8135,5.8086,5.8128,5.8125,5.8219,5.8231,5.8263,5.839,5.8397,5.831,5.8314,5.8318,5.832,0,0,0,0,0,0,0,5.7823,5.7843,5.8036,5.8001,5.8006,5.8007,5.8023,5.8108,5.8165,5.809,5.8091,5.8108,5.8221,5.8256,5.8267,5.8399,5.8309,5.8316,5.8321,5.8325,5.8618,5.862,0,0,0,0,0,0,5.781,5.7836,5.8032,5.8041,5.7912,5.8014,5.8031,5.8078,5.8164,5.8175,5.811,5.8108,5.8243,5.8257,5.8272,5.8397,5.8318,5.8325,5.833,5.8615,5.8618,5.8621,0,0,0,0,0,0,5.7804,5.7827,5.8026,5.7939,5.7964,5.8021,5.8074,5.8082,5.8116,5.8179,5.8189,5.8135,5.8242,5.8261,5.8357,5.8401,5.8329,5.8336,5.8611,5.8616,5.862,5.8645,0,0,0,0,0,0,5.7796,5.7825,5.7864,5.7939,5.7969,5.8109,5.8076,5.8086,5.8131,5.8129,5.8205,5.8215,5.8241,5.8345,5.8365,5.8411,5.8343,5.8607,5.8613,5.8618,5.864,5.8649,5.8657,0,0,0,0,0,5.7787,5.7864,5.7865,5.7889,5.8018,5.8111,5.8128,5.8157,5.8134,5.8174,5.8214,5.8213,5.8393,5.8354,5.8377,5.8427,5.8605,5.8612,5.8618,5.8636,5.8648,5.8657,0,0,0,0,0,0,5.779,5.7874,5.7877,5.798,5.8039,5.8112,5.8162,5.8168,5.8233,5.8229,5.8262,5.8279,5.8375,5.841,5.8365,5.8529,5.8496,5.8508,5.8502,5.8514,5.8522,5.8512,5.8349,0,0,0,0,0,5.7803,5.7872,5.7941,5.8026,5.8056,5.8104,5.8146,5.8164,5.8225,5.8249,5.8297,5.8356,5.8426,5.8472,5.854,5.8645,5.8663,5.8691,5.8699,5.8706,5.8716,5.8777,5.8791,5.8643,5.8643,5.8643,0,0,5.783,5.7884,5.7926,5.8028,5.8076,5.8147,5.8125,5.82,5.8254,5.826,5.8355,5.8392,5.846,5.8562,5.861,5.8595,5.8761,5.8714,5.8719,5.8726,5.8785,5.8799,5.8811,5.8648,5.8647,5.8646,0,0,5.7916,5.7964,5.8041,5.809,5.8162,5.8194,5.8213,5.8286,5.8312,5.8407,5.8415,5.8479,5.8598,5.8648,5.8689,5.8797,5.8799,5.8818,5.8863,5.8922,5.8934,5.8944,5.8985,5.8999,5.8827,5.8827,5.8827,0,5.7941,5.8049,5.808,5.8157,5.8202,5.8213,5.8293,5.8338,5.8428,5.846,5.8442,5.8595,5.8641,5.8756,5.8783,5.8815,5.8838,5.8809,5.893,5.894,5.8951,5.899,5.9005,5.8829,5.8829,5.8829,5.8828,0,5.8076,5.8151,5.8205,5.8295,5.8346,5.8423,5.8466,5.8515,5.8529,5.8563,5.8661,5.8718,5.8799,5.8827,5.884,5.8945,5.8934,5.8923,5.8891,5.8966,5.9004,5.9019,5.8832,5.8831,5.8831,5.883,0,0,5.8168,5.8275,5.8295,5.8337,5.8419,5.8477,5.8556,5.8636,5.8678,5.8741,5.8808,5.8911,5.8902,5.8948,5.8967,5.9019,5.9104,5.9002,5.9004,5.902,5.9226,5.9235,5.9252,5.9106,5.9109,5.9111,5.9221,0,5.8265,5.8406,5.8437,5.8559,5.863,5.8642,5.8711,5.8769,5.8803,5.8869,5.8906,5.8979,5.8961,5.8989,5.9041,5.9083,5.9146,5.9075,5.917,5.9173,5.9154,5.9271,5.9281,5.9381,5.9235,5.9238,5.9239,0,5.8396,5.8464,5.8594,5.8669,5.87,5.8761,5.8839,5.8901,5.8968,5.8989,5.9042,5.9057,5.914,5.9103,5.9219,5.917,5.9211,5.9238,5.9242,5.9253,5.9211,5.9287,5.9414,5.943,5.9262,5.926,5.9259,0,5.8453,5.8576,5.8671,5.8706,5.8795,5.8839,5.8878,5.8942,5.899,5.9057,5.9089,5.9165,5.9207,5.9265,5.93,5.927,5.9414,5.938,5.9435,5.9435,5.9466,5.9464,5.9603,5.9489,5.9489,5.9489,5.9488,0,5.8559,5.8638,5.8698,5.8756,5.8845,5.8881,5.8968,5.9007,5.9065,5.9131,5.9145,5.9207,5.9249,5.9317,5.9344,5.9438,5.9456,5.9476,5.9483,5.9476,5.9474,5.9504,5.9498,5.9493,5.9492,5.9491,5.949,0,5.8637,5.868,5.8784,5.8862,5.8883,5.8946,5.9012,5.9069,5.9105,5.9188,5.921,5.9265,5.9346,5.9387,5.9487,5.9506,5.9611,5.9613,5.959,5.9593,5.9647,5.9642,5.9811,5.9836,5.9704,5.9705,5.9706,0,5.8703,5.8765,5.8849,5.8896,5.8936,5.901,5.9059,5.9096,5.9147,5.9229,5.9277,5.9359,5.9426,5.9555,5.9604,5.9682,5.9686,5.974,5.9698,5.969,5.969,5.9686,5.9694,5.9748,5.9749,5.975,5.9751,0,5.8816,5.8835,5.8905,5.8985,5.9044,5.9107,5.917,5.9207,5.9254,5.931,5.9394,5.9447,5.9551,5.9632,5.9714,5.9754,5.9762,5.9764,5.9782,5.9776,5.9761,5.9772,5.9612,5.976,5.976,5.9759,5.9758,5.9758,5.8891,5.8948,5.9017,5.9096,5.9148,5.9207,5.9265,5.9309,5.938,5.9468,5.9486,5.9575,5.9642,5.9752,5.9796,5.9866,5.9855,5.9879,5.9886,5.9892,5.9896,5.9749,5.9881,5.9881,5.988,5.988,5.988,0,5.9007,5.9053,5.9125,5.9214,5.9276,5.9279,5.9349,5.9401,5.948,5.9542,5.9609,5.9707,5.9787,5.9843,5.9925,5.9971,5.9976,5.9991,5.9989,5.9999,5.99,5.9878,5.9985,5.9985,5.9985,5.9985,5.9985,5.9985,5.9074,5.9171,5.9198,5.9321,5.9366,5.9455,5.9496,5.955,5.9601,5.971,5.9777,5.9813,5.9874,5.996,6.0034,6.0049,6.0079,6.0094,6.0109,6.0016,6.0005,5.9995,5.9974,6.01,6.01,6.0202,6.0203,6.0204]}]]